Regional Weather Roundup
Issued by NWS

Home | Current Version | Previous Version | Text Only | Print | Product List | Glossary On
Versions: 1 2 3 4 5 6 7 8 9 10 11 12 13 14 15 16 17 18 19 20 21 22 23 24 25 26 27 28 29 30 31 32 33 34 35 36 37 38 39 40 41 42 43 44 45 46 47 48 49 50
000
ASUS43 KTOP 252308
RWRKS

WEATHER ROUNDUP FOR KANSAS
NATIONAL WEATHER SERVICE GOODLAND KS
600 PM CDT SAT MAR 25 2017

NOTE:  "FAIR" INDICATES FEW OR NO CLOUDS BELOW 12,000 FEET WITH NO
SIGNIFICANT WEATHER AND/OR OBSTRUCTIONS TO VISIBILITY.

KSZ001>006-013>018-027>032-041>047-260000-
NORTHWEST KANSAS

CITY           SKY/WX    TMP DP  RH WIND       PRES   REMARKS
GOODLAND       CLOUDY    59  26  28 S8        29.89F
HAYS             N/A     51  40  65 N7        29.91F
HILL CITY      SUNNY     54  42  64 E9        29.91S
RUSSELL        CLOUDY    50  39  66 N10       29.90F
$$

KSZ061>065-074>080-084>089-260000-
SOUTHWEST KANSAS

CITY           SKY/WX    TMP DP  RH WIND       PRES   REMARKS
DODGE CITY     SUNNY     64  39  39 NE7       29.88F
ELKHART          N/A     65  27  24 S6          N/A
GARDEN CITY    SUNNY     63  30  28 CALM      29.88F
GREAT BEND     MOSUNNY   52  41  66 N9        29.91F
LIBERAL        CLOUDY    64  25  22 CALM      29.90F
PRATT          SUNNY     53  39  60 N10       29.91S
$$

KSZ066>073-081>083-090>101-260000-
SOUTHEAST KANSAS

CITY           SKY/WX    TMP DP  RH WIND       PRES   REMARKS
CHANUTE        CLOUDY    49  45  86 NW9       29.88S
COFFEYVILLE    CLOUDY    49  42  77 NW9       29.91S
HUTCHINSON     CLOUDY    46  40  79 NW8       29.92S
MEDICINE LODGE   N/A     57  41  55 VRB6      29.89F
NEWTON         CLOUDY    43  41  93 N12       29.90F
PARSONS        CLOUDY    48  43  82 W9        29.91R
WICHITA INTL   CLOUDY    46  41  82 N10       29.91S
WICHITA JABRA  CLOUDY    46  41  82 N13       29.91S
WICHITA MCCONL CLOUDY    46  40  78 N10       29.91R
WINFIELD       CLOUDY    48  41  76 NW12      29.93R
$$

KSZ007>012-019>026-033>040-048>060-102>105-260000-
NORTHEAST KANSAS

CITY           SKY/WX    TMP DP  RH WIND       PRES   REMARKS
CONCORDIA      CLOUDY    42  41  96 N12       29.92F
EMPORIA        CLOUDY    45  45 100 NW12G20   29.89R FOG
LAWRENCE       CLOUDY    49  46  90 NW13      29.87R
MANHATTAN      CLOUDY    46  42  86 NW8       29.91S
MARYSVILLE     DRIZZLE   43  41  93 N10       29.92R
OLATHE IND     CLOUDY    50  47  89 NW14      29.84S
OLATHE EXE     LGT RAIN  51  48  89 N14       29.83R
SALINA         CLOUDY    45  40  82 N13       29.92F
TOPEKA BILLARD CLOUDY    47  46  97 N9        29.88S
TOPEKA FORBES  CLOUDY    48  45  89 N13       29.87S
$$




USA.gov is the U.S. government's official web portal to all federal, state and local government web resources and services.